Weather in Nykøbing Mors

Denmark     56°47′46″N   8°51′32″E
В апреле 2022 года жителям России запретили посещать сайт meteo.paraplan.net по решению Генеральной прокуратуры. Аудитория сайта уменьшилась в 10 раз. Владельцы сайта не видят смысла в поддержке погодного сервера в таких условиях. Сайт будет закрыт в октябре.
temp.,
°C
wind,
m/s
gust,
m/s
humid.,
%
clouds,
%
prec.,
mm/h
press.,
hPa
HPBL,
m
6 october, thu
thu623:00+13wnw8128994 1.1 1003757
02:00+13wsw10148041 1.4 1006957
05:00+12w11178180 2.3 10081058
08:00+12w1015800 2.3 10111024
11:00+13w1116795 0.3 10151356
14:00+14wsw1217745 0.6 10171433
17:00+13wsw11167910 0.3 10171319
20:00+13wsw101585100 0.3 1018866
7 october, fri
fri723:00+13wsw10158721 0.1 1018836
02:00+13sw9158544 0.2 1017726
05:00+14sw101689100 0.2 1015798
08:00+14sw111784100 0.3 10131070
11:00+14sw111783100 0.7 10121207
14:00+15sw111680100 1.1 10101225
17:00+14sw11168129 0.1 10071218
20:00+12w101483100 1.9 10071067
8 october, sat
sat823:00+12wsw81280100 1.8 1007850
02:00+11w610803 2.5 1007486
05:00+10w698187 0.3 1007387
08:00+10w61081100 1.1 1008352
11:00+12w811675 0.2 10101317
14:00+13wnw911653 0.8 10121406
17:00+12wnw811683 0.1 10131280
20:00+11wnw7117254 0.1 1016579
9 october, sun
sun923:00+10wnw610755 0.0 1017423
02:00+10w610785 0.0 1018401
05:00+10wsw59776 0.1 1018329
08:00+10sw598528 0.1 1018312
11:00+13ssw7117799 0.3 10171107
14:00+14sw81170100 0.6 10161280
17:00+13ssw81276100 0.1 1014942
20:00+11s91478100 0.1 1012822
10 october, mon
mon1023:00+11s91675100 0.0 1009788
02:00+12s101867100 0.0 1005879
05:00+13ssw111890100 2.5 10021078
08:00+12wnw9138085 4.9 10041031
11:00+12wnw1014685 0.0 10081468
14:00+12w1115613 0.1 10121526
17:00+12wnw1014643 0.0 10151371
20:00+10wnw8126994 0.1 1018692